Regional Weather Roundup
Issued by NWS Newport/Morehead, NC

Current Version | Previous Version | Graphics & Text | Print | Product List | Glossary Off
Versions: 1 2 3 4 5 6 7 8 9 10 11 12 13 14 15 16 17 18 19 20 21 22 23 24 25 26 27 28 29 30 31 32 33 34 35 36 37 38 39 40 41 42 43 44 45 46 47 48 49 50
000 ASUS42 KMHX 201825 RWRMHX WEATHER ROUNDUP FOR EASTERN NORTH CAROLINA NATIONAL WEATHER SERVICE NEWPORT/MOREHEAD CITY NC 200 PM EDT FRI APR 20 2018 NOTE: "FAIR" INDICATES FEW OR NO CLOUDS BELOW 12,000 FEET WITH NO SIGNIFICANT WEATHER AND/OR OBSTRUCTIONS TO VISIBILITY NCZ015>017-031-032-045>047-102-103-201900- NORTH COAST CITY SKY/WX TMP DP RH WIND PRES REMARKS EDENTON FAIR 59 27 29 CALM 30.31F ELIZABETH CITY FAIR 58 29 33 N8 30.30F KITTY HAWK FAIR 50 31 49 N5G16 30.30F MANTEO FAIR 51 32 48 NE14 30.32S $$ NCZ045>047-081-094-103-104-201900- CENTRAL COAST CITY SKY/WX TMP DP RH WIND PRES REMARKS FRISCO FAIR 58 35 42 NE12G17 30.32R $$ NCZ095-097-098-100-101-201900- SOUTHERN COAST CITY SKY/WX TMP DP RH WIND PRES REMARKS BEAUFORT FAIR 61 32 33 MISG 30.31F CEDAR ISLAND NOT AVBL JACKSONVILLE FAIR 63 31 30 W7 30.30F PINEY ISLAND NOT AVBL WILMINGTON FAIR 63 30 28 W5 30.31F $$ NCZ011>013-027>030-043-044-078>080-089-090>093-098-201900- COASTAL PLAIN CITY SKY/WX TMP DP RH WIND PRES REMARKS AHOSKIE FAIR 57 24 27 N8 30.31S CLINTON FAIR 62 32 31 N13 30.33F ELIZABETHTOWN FAIR 63 27 25 MISG 30.32F GOLDSBORO FAIR 62 27 27 NW5 30.30F GREENVILLE FAIR 61 25 25 N7G16 30.32F HAVELOCK SUNNY 62 31 31 N12 30.32S KENANSVILLE FAIR 61 28 29 NW5G16 30.32F KINSTON FAIR 61 28 29 NE6 30.32F NEW BERN FAIR 60 31 33 NW12 30.32F RICHLANDS FAIR 61 29 29 W9 30.31F ROCKY MOUNT FAIR 60 24 25 NW10 30.32F WASHINGTON FAIR 60 24 25 N10 30.32S WHITEVILLE FAIR 61 28 28 CALM 30.32F $$ AMZ130-135-150-152-154-156-158-170-250-252-270-ANZ085-086-088-633-658-670-201900- MARINE OBSERVATIONS STATION/POSITION TIME TEMP WIND PRES WAVE SWELL AIR SEA DIR/SP/G HT/PER HT/PER (UTC) (F) (DEG/KT/KT) (MB) (FT/S) (FT/S) CHESAPEAKE LIGHT NOT AVBL 64 E VA BEACH 1750 45 49 320/ 16/ 19 1026.5 5/ 6 2/11 DUCK 1800 47 52 20/ 14/ 19 1025.8 2 E DUCK 1800 51 N/A 3/ 6 2/15 OREGON INLET 1800 49 53 20/ 13/ 17 1026.5 13E OREGON INLT 1748 51 N/A 5/ 7 3/ 7 HATTERAS CG 1800 53 60 350/ 12/ 15 1026.3 DIAMOND BUOY 1810 51 70 20/ 14/ 19 1026.7 CAPE LOOKOUT 1800 60/ 10/ 11 1026.7 BEAUFORT LAB 1800 58 62 10/ 5/ 8 1026.4 30 SE NEW RVR IN 1808 54 66 40/ 4/ 10 1027.0 30 SE NEW RVR IN 1800 66 N/A 4/ 8 27 SE WRIGHTSVLE 1808 55 66 60/ 10/ 16 1027.0 5 SE WRIGHTSVLE 1808 55 60 100/ 8/ 12 1026.4 225 S CAPE HAT 1810 65 72 30/ 16/ 21 1022.9 41 SE CHARLESTON 1810 58 68 40/ 19/ 27 1025.9 $$

USA.gov is the U.S. government's official web portal to all federal, state and local government web resources and services.